User: anonymous   Login
Location: Unspecified
(0.0000°N, 0.0000°E)
Time: 03:40:48
(UTC+00:00)
Language:

ISS - Orbit

View from above orbital plane
View from above orbital plane
View from above satellite
View from above satellite

Ground track
Ground track

The orbit data is extracted from the following two-line orbital elements,

1 25544U 98067A   17231.50070569  .00016717  00000-0  10270-3 0  9036
2 25544  51.6402  82.7028 0004861 158.1485 201.9876 15.54160898 31596
Epoch (UTC): 19 August 2017 12:01:00
Eccentricity: 0.0004861
inclination: 51.6402°
perigee height: 401 km
apogee height: 408 km
right ascension of ascending node: 82.7028°
argument of perigee: 158.1485°
revolutions per day: 15.54160898
mean anomaly at epoch: 201.9876°
orbit number at epoch: 3159

The dashed part of the orbit path shows where the satellite is in the earth's shadow,  

DLR